Regional Weather Roundup
Issued by NWS

Home | Current Version | Previous Version | Text Only | Print | Product List | Glossary On
Versions: 1 2 3 4 5 6 7 8 9 10 11 12 13 14 15 16 17 18 19 20 21 22 23 24 25 26 27
000
ASUS46 KPQR 230910
RWROR

OREGON REGIONAL WEATHER ROUNDUP
NATIONAL WEATHER SERVICE PORTLAND OR
200 AM PDT WED APR 23 2014

NOTE: "FAIR" INDICATES FEW OR NO CLOUDS BELOW 12,000 FEET WITH
NO SIGNIFICANT WEATHER AND/OR OBSTRUCTIONS TO VISIBILITY.

ORZ001>013-231000-
NORTHWEST OREGON


CITY           SKY/WX    TMP DP  RH WIND       PRES   REMARKS
ASTORIA        CLOUDY    47  43  86 SW7       29.89F
NEWPORT        RAIN      48  45  87 S14G23    30.01
PORTLAND       LGT RAIN  47  43  86 S14       29.97S
VANCOUVER WA   CLOUDY    47  42  83 VRB7      29.96S
SCAPPOOSE      CLOUDY    46  44  93 S6        29.94S
HILLSBORO      CLOUDY    46  42  86 S10       29.95S
AURORA         CLOUDY    45  43  93 S12       29.98F
MCMINNVILLE    LGT RAIN  46  44  93 S15       29.98R
SALEM          LGT RAIN  45  42  89 S12       29.99R
CORVALLIS      CLOUDY    45  43  93 S13       30.02S
EUGENE         LGT RAIN  45  42  89 S9        30.04S
$$

ORZ021-028-231000-
SOUTHWEST OREGON


CITY           SKY/WX    TMP DP  RH WIND       PRES   REMARKS
NORTH BEND     CLOUDY    46  46 100 S7        30.07S
BROOKINGS      LGT RAIN  46  44  93 SE5       30.13S FOG
ROSEBURG       CLOUDY    46  41  82 S3        30.07S
SEXTON SUMMIT  FOG       32  32 100 S13G20    30.01S VSB 1/4 WCI  22
MEDFORD        CLOUDY    45  37  73 SW3       30.08F
$$

ORZ009-041-231000-
COLUMBIA GORGE


CITY           SKY/WX    TMP DP  RH WIND       PRES   REMARKS
TROUTDALE      LGT RAIN  48  42  80 S13       29.96S
THE DALLES     CLOUDY    43  38  82 SE3       29.94F
$$

ORZ029>031-042>050-061>064-231000-
EASTERN OREGON


CITY           SKY/WX    TMP DP  RH WIND       PRES   REMARKS
REDMOND        MOCLDY    38  27  64 S9        29.94S WCI  31
BEND           PTSUNNY   37  28  70 SW10      29.95S WCI  30
KLAMATH FALLS  CLOUDY    33  28  81 CALM      30.05R
LAKEVIEW       MOCLDY    34  27  75 S8        30.02F WCI  27
HERMISTON      CLOUDY    44  36  73 S5        29.92F
PENDLETON      CLOUDY    39  33  79 S7        29.91F WCI  34
JOHN DAY       SUNNY     36  27  69 SW3       29.94F
MEACHAM        CLOUDY    30  27  88 CALM      29.89F
LA GRANDE      PTCLDY    32  23  69 CALM      29.91F
BAKER CITY     PTCLDY    23  20  88 CALM      29.92F
BURNS          PTCLDY    28  21  75 W5        29.98R WCI  23
ROME             N/A     28  18  66 SE9       29.96F WCI  19
ONTARIO        CLEAR     33  26  75 SW7       29.98R WCI  27
$$



USA.gov is the U.S. government's official web portal to all federal, state and local government web resources and services.